This is the latest recevied weather packets stored in our database for station/object N5RPG. If no packets are shown the sender has not sent any weather packets the latest 10 day(s).
| Time | Temp. | Humidity | Pressure | Rain* | Wind** | Luminosity | Snow |
|---|---|---|---|---|---|---|---|
| 1777168787 | 23.33° C | 91% | 1007.6 hPa | 0 mm | - | 0 W/m² | - |
| 1777168483 | 23.33° C | 91% | 1007.3 hPa | 0 mm | - | 0 W/m² | - |
| 1777168182 | 23.33° C | 90% | 1007.3 hPa | 0 mm | - | 0 W/m² | - |
| 1777167879 | 23.33° C | 90% | 1007.1 hPa | 0 mm | - | 0 W/m² | - |
| 1777167574 | 23.33° C | 90% | 1007.1 hPa | 0 mm | - | 0 W/m² | - |
| 1777167270 | 23.33° C | 90% | 1007 hPa | 0 mm | - | 0 W/m² | - |
| 1777166966 | 23.33° C | 89% | 1007.2 hPa | 0 mm | - | 0 W/m² | - |
| 1777166661 | 23.33° C | 89% | 1007.3 hPa | 0 mm | - | 0 W/m² | - |
| 1777166357 | 23.33° C | 89% | 1007 hPa | 0 mm | - | 0 W/m² | - |
| 1777166052 | 23.89° C | 88% | 1007.1 hPa | 0 mm | - | 0 W/m² | - |
| 1777165751 | 23.89° C | 88% | 1007 hPa | 0 mm | - | 0 W/m² | - |
| 1777165448 | 23.89° C | 87% | 1007.1 hPa | 0 mm | - | 0 W/m² | - |
| 1777165143 | 23.89° C | 87% | 1007.1 hPa | 0 mm | - | 1 W/m² | - |
| 1777164838 | 23.89° C | 86% | 1007.1 hPa | 0 mm | - | 2 W/m² | - |
| 1777164536 | 24.44° C | 86% | 1007.3 hPa | 0 mm | - | 2 W/m² | - |
| 1777164231 | 24.44° C | 85% | 1007.4 hPa | 0 mm | - | 4 W/m² | - |
| 1777163927 | 24.44° C | 86% | 1007.5 hPa | 0 mm | - | 7 W/m² | - |
| 1777163626 | 24.44° C | 85% | 1007.6 hPa | 0 mm | - | 11 W/m² | - |
| 1777163322 | 24.44° C | 85% | 1007.5 hPa | 0 mm | - | 15 W/m² | - |
| 1777163018 | 24.44° C | 84% | 1007.3 hPa | 0 mm | - | 21 W/m² | - |
| 1777162714 | 24.44° C | 84% | 1007.4 hPa | 0 mm | - | 25 W/m² | - |
| 1777162414 | 25° C | 84% | 1007.3 hPa | 0 mm | - | 30 W/m² | - |
| 1777162114 | 25° C | 84% | 1007.4 hPa | 0 mm | - | 37 W/m² | - |
| 1777161809 | 25° C | 84% | 1007.4 hPa | 0 mm | - | 34 W/m² | - |
| 1777161507 | 25° C | 83% | 1007.3 hPa | 0 mm | - | 39 W/m² | - |
* Rain latest hour (hover to see other rain measurements)
** Current wind speed in m/s (hover to see current wind gust speed)